Location: Juzet
(42.9779°N, 0.7597°E)
Time: 02:29:07
(UTC+00:00)

CZ-2D R/B - Pass Details

Date: 14 July 2020
Orbit: 553 x 638 km, 97.9° (Epoch: 04 August)

Event Time Altitude Azimuth Distance (km) Brightness Sun altitude
Rises 02:38:54 0° 19° (NNE) 2,926 8.4 -16.1°
Reaches altitude 10° 02:41:13 10° 25° (NNE) 2,003 7.4 -15.8°
Maximum altitude 02:45:23 44° 98° (E) 849 4.5 -15.4°
Enters shadow 02:49:01 13° 170° (S) 1,780 5.5 -15.0°
